Torna al catalogo

COSMOS 2251 DEB

AttivoLEO
NORAD 33999·DEBRIS·🇷🇺 Russia

Lanciato Jun 16, 1993 da Plesetsk Cosmodrome

Loading…

Prossimi Passaggi (prossime 24 ore)

TLE

AggiornatoSource: Space-Track

Epoca: Sep 13, 2026, 19:23 UTC

1 33999U 93036GJ  26256.80803769  .00008992  00000-0  93775-3 0  9998
2 33999  73.9163  39.2715 0039868 227.5730 132.2077 14.89292389933384

Traccia COSMOS 2251 DEB in tempo reale con AllMySat

Download on the App Store